If you wish to contribute or participate in the discussions about articles you are invited to join SKYbrary as a registered user

 Actions

Gdańsk Lech Wałęsa Airport

From SKYbrary Wiki

EPGD
Airport
ICAO: EPGD – IATA: GDN
Summary
Name Gdańsk Lech Wałęsa Airport
Region Europe
Territory Poland PL.gif
Location Rebiechowo, Pomorskie
Serving Gdansk
Elevation 149.047 m
489 ft
489 ft149.047 m
Type large airport
Coordinates 54° 22' 39.25" N, 18° 27' 58.40" E
Runways
Designator Length Width Surface ROPS
11/29 2800 m9,186.352 ft
45 m147.638 ft
ASP yes/yes


METAR
Observation EPGD 061800Z 21009KT CAVOK 17/05 Q1004
Station Gdansk-Rebiechowo
Date/Time 06 June 2020 18:00:00
Wind direction 210°
Wind speed 09 kts
Lowest cloud amount clouds and visibility OK
Temperature 17°C
Dew point 5°C
Humidity 45%
QNH 1004 hPa
Weather condition n/a

Maps

Terrain

Loading map...

Airport Layout

Loading map...


Accidents & Serious Incidents at or in vicinity of EPGD

None on SKYbrary